• In Österreich
  • Länderverzeichnis
  • Für 7 Tage
  • Wassertemperatur
  • Satellitenkarten
  • Wetterkarte
  • News
  • Widgets
  • user-avatar
    Anmelden

    Stündliche Wetter Wieliczka

    Heute, 19 September, Mittwoch

    Zeit Temperatur Niederschläge Wind Luftdruck Luftfeuchtigkeit
    00:00 +16°C° 0 mm 2 m/S 740 mmHg 74%
    01:00 +16°C° 0 mm 2 m/S 740 mmHg 75%
    02:00 +16°C° 0 mm 2 m/S 740 mmHg 75%
    03:00 +15°C° 0 mm 2 m/S 740 mmHg 75%
    04:00 +15°C° 0 mm 2 m/S 740 mmHg 75%
    05:00 +16°C° 0 mm 2 m/S 740 mmHg 72%
    06:00 +17°C° 0 mm 2 m/S 741 mmHg 69%
    07:00 +18°C° 0 mm 2 m/S 741 mmHg 66%
    08:00 +20°C° 0 mm 2 m/S 741 mmHg 57%
    09:00 +23°C° 0 mm 2 m/S 741 mmHg 48%
    10:00 +26°C° 0 mm 2 m/S 741 mmHg 40%
    11:00 +27°C° 0 mm 2 m/S 741 mmHg 37%
    12:00 +28°C° 0 mm 2 m/S 741 mmHg 35%
    13:00 +28°C° 0 mm 2 m/S 741 mmHg 32%
    14:00 +28°C° 0 mm 2 m/S 741 mmHg 35%
    15:00 +28°C° 0 mm 2 m/S 741 mmHg 37%
    16:00 +27°C° 0 mm 2 m/S 740 mmHg 40%
    17:00 +25°C° 0 mm 1 m/S 740 mmHg 45%
    18:00 +23°C° 0 mm 1 m/S 741 mmHg 51%
    19:00 +20°C° 0 mm 1 m/S 741 mmHg 56%
    20:00 +20°C° 0 mm 1 m/S 741 mmHg 59%
    21:00 +19°C° 0 mm 1 m/S 741 mmHg 61%
    22:00 +19°C° 0 mm 1 m/S 741 mmHg 64%
    23:00 +18°C° 0 mm 1 m/S 741 mmHg 66%

    Morgen, 20 September, Donnerstag

    Zeit Temperatur Niederschläge Wind Luftdruck Luftfeuchtigkeit
    00:00 +18°C° 0 mm 1 m/S 741 mmHg 68%
    01:00 +18°C° 0 mm 1 m/S 741 mmHg 70%
    02:00 +16°C° 0 mm 1 m/S 741 mmHg 71%
    03:00 +16°C° 0 mm 1 m/S 741 mmHg 72%
    04:00 +16°C° 0 mm 1 m/S 741 mmHg 73%
    05:00 +18°C° 0 mm 1 m/S 741 mmHg 71%
    06:00 +18°C° 0 mm 1 m/S 741 mmHg 69%
    07:00 +19°C° 0 mm 1 m/S 741 mmHg 66%
    08:00 +22°C° 0 mm 1 m/S 741 mmHg 59%
    09:00 +24°C° 0 mm 1 m/S 741 mmHg 51%
    10:00 +26°C° 0 mm 1 m/S 741 mmHg 43%
    11:00 +27°C° 0 mm 1 m/S 741 mmHg 41%
    12:00 +28°C° 0 mm 1 m/S 741 mmHg 38%
    13:00 +29°C° 0 mm 1 m/S 740 mmHg 36%
    14:00 +28°C° 0 mm 1 m/S 740 mmHg 38%
    15:00 +28°C° 0 mm 1 m/S 740 mmHg 40%
    16:00 +28°C° 0 mm 1 m/S 740 mmHg 42%
    17:00 +26°C° 0 mm 1 m/S 740 mmHg 48%
    18:00 +23°C° 0 mm 1 m/S 740 mmHg 54%
    19:00 +21°C° 0 mm 1 m/S 739 mmHg 60%
    20:00 +21°C° 0 mm 1 m/S 739 mmHg 63%
    21:00 +20°C° 0 mm 1 m/S 739 mmHg 65%
    22:00 +19°C° 0 mm 1 m/S 739 mmHg 68%
    23:00 +19°C° 0 mm 1 m/S 739 mmHg 70%

    übermorgen, 21 September, Freitag

    Zeit Temperatur Niederschläge Wind Luftdruck Luftfeuchtigkeit
    00:00 +19°C° 0 mm 1 m/S 739 mmHg 72%
    01:00 +18°C° 0 mm 1 m/S 739 mmHg 74%
    02:00 +18°C° 0 mm 1 m/S 739 mmHg 75%
    03:00 +18°C° 0 mm 1 m/S 739 mmHg 75%
    04:00 +18°C° 0 mm 1 m/S 738 mmHg 76%
    05:00 +18°C° 0 mm 1 m/S 738 mmHg 74%
    06:00 +19°C° 0 mm 1 m/S 738 mmHg 71%
    07:00 +19°C° 0 mm 2 m/S 738 mmHg 68%
    08:00 +21°C° 0 mm 2 m/S 738 mmHg 60%
    09:00 +24°C° 0 mm 2 m/S 738 mmHg 51%
    10:00 +27°C° 0 mm 2 m/S 738 mmHg 43%
    11:00 +28°C° 0 mm 3 m/S 738 mmHg 39%
    12:00 +29°C° 0 mm 3 m/S 737 mmHg 36%
    13:00 +29°C° 0 mm 3 m/S 737 mmHg 33%
    14:00 +29°C° 0 mm 3 m/S 736 mmHg 36%
    15:00 +29°C° 0 mm 3 m/S 736 mmHg 38%
    16:00 +28°C° 0 mm 3 m/S 735 mmHg 40%
    17:00 +26°C° 0 mm 3 m/S 735 mmHg 46%
    18:00 +24°C° 0 mm 3 m/S 735 mmHg 52%
    19:00 +20°C° 0 mm 3 m/S 734 mmHg 58%
    20:00 +20°C° 0 mm 3 m/S 734 mmHg 59%
    21:00 +19°C° 0 mm 3 m/S 734 mmHg 60%
    22:00 +18°C° 0 mm 3 m/S 733 mmHg 61%
    23:00 +18°C° 0 mm 3 m/S 733 mmHg 59%

    22 September, Samstag

    Zeit Temperatur Niederschläge Wind Luftdruck Luftfeuchtigkeit
    00:00 +18°C° 0 mm 3 m/S 733 mmHg 58%
    01:00 +18°C° 0 mm 3 m/S 732 mmHg 56%
    02:00 +17°C° 0 mm 4 m/S 733 mmHg 58%
    03:00 +16°C° 0 mm 5 m/S 734 mmHg 60%
    04:00 +16°C° 0 mm 6 m/S 734 mmHg 62%
    05:00 +14°C° 0.3 mm 5 m/S 736 mmHg 68%
    06:00 +13°C° 0.3 mm 5 m/S 737 mmHg 74%
    07:00 +10°C° 0.3 mm 5 m/S 738 mmHg 81%
    08:00 +11°C° 0.1 mm 4 m/S 738 mmHg 78%
    09:00 +11°C° 0.1 mm 4 m/S 739 mmHg 76%
    10:00 +11°C° 0.1 mm 4 m/S 739 mmHg 73%
    11:00 +12°C° 0.1 mm 4 m/S 739 mmHg 71%
    12:00 +12°C° 0.1 mm 3 m/S 739 mmHg 69%
    13:00 +12°C° 0.1 mm 3 m/S 740 mmHg 67%
    14:00 +12°C° 0 mm 4 m/S 739 mmHg 65%
    15:00 +13°C° 0 mm 4 m/S 739 mmHg 62%
    16:00 +13°C° 0 mm 4 m/S 739 mmHg 60%
    17:00 +12°C° 0 mm 4 m/S 739 mmHg 64%
    18:00 +11°C° 0 mm 3 m/S 740 mmHg 67%
    19:00 +10°C° 0 mm 2 m/S 740 mmHg 71%
    20:00 +10°C° 0 mm 3 m/S 740 mmHg 73%
    21:00 +9°C° 0 mm 3 m/S 740 mmHg 74%
    22:00 +9°C° 0 mm 3 m/S 740 mmHg 76%
    23:00 +8°C° 0 mm 3 m/S 740 mmHg 76%

    23 September, Sonntag

    Zeit Temperatur Niederschläge Wind Luftdruck Luftfeuchtigkeit
    00:00 +8°C° 0 mm 3 m/S 740 mmHg 76%
    01:00 +8°C° 0 mm 3 m/S 740 mmHg 76%
    02:00 +8°C° 0 mm 3 m/S 740 mmHg 77%
    03:00 +7°C° 0 mm 3 m/S 740 mmHg 77%
    04:00 +7°C° 0 mm 2 m/S 740 mmHg 78%
    05:00 +8°C° 0 mm 2 m/S 740 mmHg 75%
    06:00 +8°C° 0 mm 3 m/S 740 mmHg 72%
    07:00 +9°C° 0 mm 3 m/S 740 mmHg 69%
    08:00 +11°C° 0 mm 3 m/S 740 mmHg 61%
    09:00 +13°C° 0 mm 3 m/S 740 mmHg 52%
    10:00 +16°C° 0 mm 3 m/S 740 mmHg 44%
    11:00 +17°C° 0 mm 3 m/S 739 mmHg 40%
    12:00 +18°C° 0 mm 3 m/S 738 mmHg 36%
    13:00 +19°C° 0 mm 4 m/S 737 mmHg 33%
    14:00 +18°C° 0 mm 3 m/S 737 mmHg 34%
    15:00 +18°C° 0 mm 3 m/S 736 mmHg 36%
    16:00 +18°C° 0 mm 3 m/S 736 mmHg 38%
    17:00 +17°C° 0 mm 3 m/S 735 mmHg 43%
    18:00 +14°C° 0 mm 3 m/S 734 mmHg 48%
    19:00 +13°C° 0 mm 3 m/S 734 mmHg 53%
    20:00 +13°C° 0 mm 4 m/S 733 mmHg 54%
    21:00 +13°C° 0 mm 4 m/S 732 mmHg 55%
    22:00 +13°C° 0 mm 5 m/S 731 mmHg 55%
    23:00 +13°C° 0 mm 5 m/S 730 mmHg 55%

    24 September, Montag

    Zeit Temperatur Niederschläge Wind Luftdruck Luftfeuchtigkeit
    00:00 +13°C° 0 mm 5 m/S 729 mmHg 55%
    01:00 +13°C° 0 mm 5 m/S 727 mmHg 54%
    02:00 +12°C° 0.2 mm 5 m/S 727 mmHg 59%
    03:00 +12°C° 0.2 mm 4 m/S 727 mmHg 63%
    04:00 +12°C° 0.2 mm 4 m/S 727 mmHg 68%
    05:00 +12°C° 0 mm 5 m/S 727 mmHg 68%
    06:00 +13°C° 0 mm 5 m/S 727 mmHg 67%
    07:00 +13°C° 0 mm 6 m/S 727 mmHg 67%
    08:00 +11°C° 0.1 mm 6 m/S 727 mmHg 68%
    09:00 +12°C° 0.1 mm 5 m/S 727 mmHg 69%
    10:00 +10°C° 0.1 mm 5 m/S 726 mmHg 69%
    11:00 +10°C° 0.5 mm 5 m/S 727 mmHg 72%
    12:00 +10°C° 0.5 mm 5 m/S 727 mmHg 74%
    13:00 +10°C° 0.5 mm 6 m/S 727 mmHg 76%
    14:00 +11°C° 0 mm 6 m/S 727 mmHg 74%
    15:00 +11°C° 0 mm 6 m/S 727 mmHg 72%
    16:00 +13°C° 0 mm 6 m/S 727 mmHg 69%
    17:00 +11°C° 0 mm 6 m/S 727 mmHg 70%
    18:00 +10°C° 0 mm 6 m/S 727 mmHg 71%
    19:00 +10°C° 0 mm 5 m/S 727 mmHg 72%
    20:00 +9°C° 0 mm 5 m/S 728 mmHg 72%
    21:00 +9°C° 0 mm 5 m/S 728 mmHg 73%
    22:00 +9°C° 0 mm 5 m/S 728 mmHg 73%
    23:00 +9°C° 0 mm 5 m/S 728 mmHg 74%
    Mehr zeigen